User: anonymous   Login
Location: *
(46.3500°N, 10.9000°E)
Time: 21:01:56
(UTC+00:00)
Language:

Resurs 01 Rocket - Orbit

View from above orbital plane
View from above orbital plane
View from above satellite
View from above satellite

Ground track
Ground track

The orbit data is extracted from the following two-line orbital elements,

1 23343U 94074B   20184.76539418 -.00000008 +00000-0 +62464-5 0  9993
2 23343 097.9978 237.6302 0008309 099.9870 013.6999 14.76827873380888
Epoch (UTC): 02 July 2020 18:22:10
Eccentricity: 0.0008309
inclination: 97.9978°
perigee height: 633 km
apogee height: 645 km
right ascension of ascending node: 237.6302°
argument of perigee: 99.9870°
revolutions per day: 14.76827873
mean anomaly at epoch: 13.6999°
orbit number at epoch: 38088

The dashed part of the orbit path shows where the satellite is in the earth's shadow,  

DLR